ProjectID,Date,Electric Generation,Electric Utility Import,Facility Electric Load
,YYYY-MM-DD,kW,kW,kW
314,2015-12-01,0.0,,0.0
314,2015-12-02,0.0,,0.0
314,2015-12-03,0.0,,0.0
314,2015-12-04,0.0,,0.0
314,2015-12-05,0.0,,0.0
314,2015-12-06,0.0,,0.0
314,2015-12-07,0.0,,0.0
314,2015-12-08,0.0,,0.0
314,2015-12-09,0.0,,0.0
314,2015-12-10,0.0,,0.0
314,2015-12-11,0.0,,0.0
314,2015-12-12,0.0,,0.0
314,2015-12-13,0.0,,0.0
314,2015-12-14,0.0,,0.0
314,2015-12-15,0.0,,0.0
314,2015-12-16,0.0,,0.0
314,2015-12-17,0.0,,0.0
314,2015-12-18,0.0,,0.0
314,2015-12-19,0.0,,0.0
314,2015-12-20,0.0,,0.0
314,2015-12-21,0.0,,0.0
314,2015-12-22,1.2457916666666666,,1.2457916666666666
314,2015-12-23,7.8133333333333335,,7.8133333333333335
314,2015-12-24,6.392916666666667,,6.392916666666667
314,2015-12-25,13.596666666666666,,13.596666666666666
314,2015-12-26,14.415,,14.415
314,2015-12-27,2.3529166666666668,,2.3529166666666668
314,2015-12-28,16.336625,,16.336625
314,2015-12-29,0.2891666666666667,,0.2891666666666667
314,2015-12-30,0.285,,0.285
314,2015-12-31,1.8936666666666666,,1.8936666666666666
314,2016-01-01,2.5629583333333334,,2.5629583333333334
314,2016-01-02,2.57,,2.57
314,2016-01-03,3.4345416666666666,,3.4345416666666666
314,2016-01-04,2.3908333333333336,,2.3908333333333336
314,2016-01-05,6.410416666666666,,6.410416666666666
314,2016-01-06,3.6620833333333334,,3.6620833333333334
314,2016-01-07,9.724166666666667,,9.724166666666667
314,2016-01-08,4.981625,,4.981625
314,2016-01-09,4.761583333333333,,4.761583333333333
314,2016-01-10,4.545875,,4.545875
314,2016-01-11,47.835791666666665,,47.835791666666665
314,2016-01-12,6.438666666666666,,6.438666666666666
314,2016-01-13,14.919166666666667,,14.919166666666667
314,2016-01-14,23.320791666666665,,23.320791666666665
314,2016-01-15,15.977083333333333,,15.977083333333333
314,2016-01-16,12.738375,,12.738375
314,2016-01-17,16.817958333333333,,16.817958333333333
314,2016-01-18,18.09425,,18.09425
314,2016-01-19,37.62833333333334,,37.62833333333334
314,2016-01-20,47.488708333333335,,47.488708333333335
314,2016-01-21,52.235458333333334,,52.235458333333334
314,2016-01-22,42.5025,,42.5025
314,2016-01-23,19.228791666666666,,19.228791666666666
314,2016-01-24,45.43254166666667,,45.43254166666667
314,2016-01-25,17.091125,,17.091125
314,2016-01-26,15.291291666666666,,15.291291666666666
314,2016-01-27,39.72925,,39.72925
314,2016-01-28,48.537125,,48.537125
314,2016-01-29,18.383125,,18.383125
314,2016-01-30,36.340375,,36.340375
314,2016-01-31,12.153,,12.153
314,2016-02-01,32.777541666666664,,32.777541666666664
314,2016-02-02,60.17850000000001,,60.17850000000001
314,2016-02-03,3.142916666666667,,3.142916666666667
314,2016-02-04,32.579,,32.579
314,2016-02-05,34.095166666666664,,34.095166666666664
314,2016-02-06,44.18420833333334,,44.18420833333334
314,2016-02-07,51.212208333333336,,51.212208333333336
314,2016-02-08,24.778458333333333,,24.778458333333333
314,2016-02-09,1.1238333333333335,,1.1238333333333335
314,2016-02-10,1.4033333333333333,,1.4033333333333333
314,2016-02-11,5.035833333333334,,5.035833333333334
314,2016-02-12,4.652958333333333,,4.652958333333333
314,2016-02-13,8.981250000000001,,8.981250000000001
314,2016-02-14,9.746416666666667,,9.746416666666667
314,2016-02-15,3.4616249999999997,,3.4616249999999997
314,2016-02-16,0.30716666666666664,,0.30716666666666664
314,2016-02-17,0.89575,,0.89575
314,2016-02-18,0.9370833333333333,,0.9370833333333333
314,2016-02-19,0.31245833333333334,,0.31245833333333334
314,2016-02-20,0.3235,,0.3235
314,2016-02-21,0.3273333333333333,,0.3273333333333333
314,2016-02-22,0.3194166666666667,,0.3194166666666667
314,2016-02-23,0.31866666666666665,,0.31866666666666665
314,2016-02-24,0.32825,,0.32825
314,2016-02-25,0.3299166666666667,,0.3299166666666667
314,2016-02-26,0.32016666666666665,,0.32016666666666665
314,2016-02-27,0.31825,,0.31825
314,2016-02-28,0.3299166666666667,,0.3299166666666667
314,2016-02-29,0.332,,0.332
314,2016-03-01,0.32366666666666666,,0.32366666666666666
314,2016-03-02,0.3273333333333333,,0.3273333333333333
314,2016-03-03,0.31725,,0.31725
314,2016-03-04,0.32016666666666665,,0.32016666666666665
314,2016-03-05,0.32066666666666666,,0.32066666666666666
314,2016-03-06,0.3239166666666667,,0.3239166666666667
314,2016-03-07,0.32825,,0.32825
314,2016-03-08,0.3303333333333333,,0.3303333333333333
314,2016-03-09,0.32575,,0.32575
314,2016-03-10,3.9110416666666663,,3.9110416666666663
314,2016-03-11,51.21120833333333,,51.21120833333333
314,2016-03-12,75.99220833333334,,75.99220833333334
314,2016-03-13,67.67083333333333,,67.67083333333333
314,2016-03-14,9.644208333333333,,9.644208333333333
314,2016-03-15,40.84579166666666,,40.84579166666666
314,2016-03-16,55.77041666666667,,55.77041666666667
314,2016-03-17,47.7925,,47.7925
314,2016-03-18,33.29004166666667,,33.29004166666667
314,2016-03-19,83.88029166666666,,83.88029166666666
314,2016-03-20,67.61925000000001,,67.61925000000001
314,2016-03-21,72.63379166666667,,72.63379166666667
314,2016-03-22,76.89858333333333,,76.89858333333333
314,2016-03-23,10.362583333333333,,10.362583333333333
314,2016-03-24,40.83091666666667,,40.83091666666667
314,2016-03-25,37.51204166666667,,37.51204166666667
314,2016-03-26,75.39320833333333,,75.39320833333333
314,2016-03-27,59.55991666666667,,59.55991666666667
314,2016-03-28,7.487708333333334,,7.487708333333334
314,2016-03-29,84.24033333333334,,84.24033333333334
314,2016-03-30,108.68633333333334,,108.68633333333334
314,2016-03-31,46.709624999999996,,46.709624999999996
314,2016-04-01,38.694125,,38.694125
314,2016-04-02,54.89029166666666,,54.89029166666666
314,2016-04-03,66.07424999999999,,66.07424999999999
314,2016-04-04,0.5913333333333334,,0.5913333333333334
314,2016-04-05,48.76808333333333,,48.76808333333333
314,2016-04-06,50.11120833333334,,50.11120833333334
314,2016-04-07,26.396375000000003,,26.396375000000003
314,2016-04-08,57.95245833333333,,57.95245833333333
314,2016-04-09,114.76791666666666,,114.76791666666666
314,2016-04-10,114.88170833333334,,114.88170833333334
314,2016-04-11,11.3715,,11.3715
314,2016-04-12,56.3835,,56.3835
314,2016-04-13,118.44808333333333,,118.44808333333333
314,2016-04-14,123.79833333333333,,123.79833333333333
314,2016-04-15,122.614375,,122.614375
314,2016-04-16,121.10916666666667,,121.10916666666667
314,2016-04-17,118.77220833333332,,118.77220833333332
314,2016-04-18,111.991875,,111.991875
314,2016-04-19,115.04825,,115.04825
314,2016-04-20,125.90837499999999,,125.90837499999999
314,2016-04-21,124.15108333333335,,124.15108333333335
314,2016-04-22,49.41579166666667,,49.41579166666667
314,2016-04-23,77.92433333333334,,77.92433333333334
314,2016-04-24,125.0265,,125.0265
314,2016-04-25,75.134625,,75.134625
314,2016-04-26,20.24020833333333,,20.24020833333333
314,2016-04-27,122.657625,,122.657625
314,2016-04-28,108.12704166666667,,108.12704166666667
314,2016-04-29,110.65429166666667,,110.65429166666667
314,2016-04-30,123.652625,,123.652625
314,2016-05-01,18.885625,,18.885625
314,2016-05-02,22.741583333333335,,22.741583333333335
314,2016-05-03,64.56854166666666,,64.56854166666666
314,2016-05-04,22.676708333333334,,22.676708333333334
314,2016-05-05,40.52054166666667,,40.52054166666667
314,2016-05-06,71.54129166666667,,71.54129166666667
314,2016-05-07,90.59500000000001,,90.59500000000001
314,2016-05-08,83.10608333333333,,83.10608333333333
314,2016-05-09,118.27541666666667,,118.27541666666667
314,2016-05-10,124.50245833333334,,124.50245833333334
314,2016-05-11,128.7755,,128.7755
314,2016-05-12,122.22666666666667,,122.22666666666667
314,2016-05-13,27.681708333333333,,27.681708333333333
314,2016-05-14,94.11020833333333,,94.11020833333333
314,2016-05-15,59.567791666666665,,59.567791666666665
314,2016-05-16,79.77425000000001,,79.77425000000001
314,2016-05-17,95.53129166666668,,95.53129166666668
314,2016-05-18,123.15579166666667,,123.15579166666667
314,2016-05-19,82.47862500000001,,82.47862500000001
314,2016-05-20,118.02625,,118.02625
314,2016-05-21,69.56,,69.56
314,2016-05-22,70.01316666666666,,70.01316666666666
314,2016-05-23,123.16158333333334,,123.16158333333334
314,2016-05-24,59.03333333333333,,59.03333333333333
314,2016-05-25,94.07825000000001,,94.07825000000001
314,2016-05-26,100.49225,,100.49225
314,2016-05-27,93.432375,,93.432375
314,2016-05-28,80.382875,,80.382875
314,2016-05-29,72.16420833333333,,72.16420833333333
314,2016-05-30,100.12895833333333,,100.12895833333333
314,2016-05-31,120.41737499999999,,120.41737499999999
314,2016-06-01,106.78858333333334,,106.78858333333334
314,2016-06-02,89.6895,,89.6895
314,2016-06-03,91.85879166666666,,91.85879166666666
314,2016-06-04,100.56191666666666,,100.56191666666666
314,2016-06-05,10.19675,,10.19675
314,2016-06-06,98.92787499999999,,98.92787499999999
314,2016-06-07,88.40637500000001,,88.40637500000001
314,2016-06-08,85.81329166666666,,85.81329166666666
314,2016-06-09,97.63816666666666,,97.63816666666666
314,2016-06-10,127.41091666666667,,127.41091666666667
314,2016-06-11,43.69804166666666,,43.69804166666666
314,2016-06-12,45.26179166666666,,45.26179166666666
314,2016-06-13,89.97345833333333,,89.97345833333333
314,2016-06-14,120.74891666666667,,120.74891666666667
314,2016-06-15,117.64845833333334,,117.64845833333334
314,2016-06-16,121.54379166666666,,121.54379166666666
314,2016-06-17,132.827,,132.827
314,2016-06-18,129.06520833333335,,129.06520833333335
314,2016-06-19,124.121875,,124.121875
314,2016-06-20,117.09908333333334,,117.09908333333334
314,2016-06-21,113.43233333333335,,113.43233333333335
314,2016-06-22,94.39216666666665,,94.39216666666665
314,2016-06-23,98.782,,98.782
314,2016-06-24,129.80212500000002,,129.80212500000002
314,2016-06-25,121.03525,,121.03525
314,2016-06-26,124.29558333333334,,124.29558333333334
314,2016-06-27,53.009875,,53.009875
314,2016-06-28,59.94354166666667,,59.94354166666667
314,2016-06-29,101.88091666666666,,101.88091666666666
314,2016-06-30,115.934375,,115.934375
314,2016-07-01,81.88229166666666,,81.88229166666666
314,2016-07-02,92.31520833333333,,92.31520833333333
314,2016-07-03,114.271,,114.271
314,2016-07-04,131.1185,,131.1185
314,2016-07-05,103.78995833333333,,103.78995833333333
314,2016-07-06,124.62262500000001,,124.62262500000001
314,2016-07-07,90.31524999999999,,90.31524999999999
314,2016-07-08,79.98454166666666,,79.98454166666666
314,2016-07-09,14.248833333333332,,14.248833333333332
314,2016-07-10,62.02225000000001,,62.02225000000001
314,2016-07-11,124.30345833333332,,124.30345833333332
314,2016-07-12,121.662875,,121.662875
314,2016-07-13,116.68366666666667,,116.68366666666667
314,2016-07-14,56.063874999999996,,56.063874999999996
314,2016-07-15,110.50274999999999,,110.50274999999999
314,2016-07-16,99.34133333333334,,99.34133333333334
314,2016-07-17,104.22154166666667,,104.22154166666667
314,2016-07-18,76.93766666666666,,76.93766666666666
314,2016-07-19,102.98316666666666,,102.98316666666666
314,2016-07-20,118.35433333333333,,118.35433333333333
314,2016-07-21,123.23841666666668,,123.23841666666668
314,2016-07-22,117.06133333333334,,117.06133333333334
314,2016-07-23,94.51837499999999,,94.51837499999999
314,2016-07-24,104.85045833333334,,104.85045833333334
314,2016-07-25,73.17866666666667,,73.17866666666667
314,2016-07-26,82.50145833333333,,82.50145833333333
314,2016-07-27,110.19024999999999,,110.19024999999999
314,2016-07-28,83.36479166666668,,83.36479166666668
314,2016-07-29,115.429875,,115.429875
314,2016-07-30,94.36470833333334,,94.36470833333334
314,2016-07-31,30.94158333333333,,30.94158333333333
314,2016-08-01,73.48325,,73.48325
314,2016-08-02,57.708375,,57.708375
314,2016-08-03,121.79575,,121.79575
314,2016-08-04,119.20854166666668,,119.20854166666668
314,2016-08-05,119.34779166666668,,119.34779166666668
314,2016-08-06,104.402625,,104.402625
314,2016-08-07,100.87904166666668,,100.87904166666668
314,2016-08-08,106.82433333333334,,106.82433333333334
314,2016-08-09,118.80216666666666,,118.80216666666666
314,2016-08-10,39.631750000000004,,39.631750000000004
314,2016-08-11,102.44416666666666,,102.44416666666666
314,2016-08-12,65.53141666666666,,65.53141666666666
314,2016-08-13,60.924749999999996,,60.924749999999996
314,2016-08-14,63.51191666666667,,63.51191666666667
314,2016-08-15,72.75920833333333,,72.75920833333333
314,2016-08-16,34.65770833333333,,34.65770833333333
314,2016-08-17,88.00683333333335,,88.00683333333335
314,2016-08-18,81.532625,,81.532625
314,2016-08-19,109.510625,,109.510625
314,2016-08-20,114.01187499999999,,114.01187499999999
314,2016-08-21,47.052249999999994,,47.052249999999994
314,2016-08-22,116.760625,,116.760625
314,2016-08-23,113.02483333333333,,113.02483333333333
314,2016-08-24,109.95204166666667,,109.95204166666667
314,2016-08-25,40.817875,,40.817875
314,2016-08-26,93.03283333333333,,93.03283333333333
314,2016-08-27,90.73195833333334,,90.73195833333334
314,2016-08-28,104.40383333333334,,104.40383333333334
314,2016-08-29,111.385625,,111.385625
314,2016-08-30,107.535375,,107.535375
314,2016-08-31,44.194208333333336,,44.194208333333336
314,2016-09-01,78.48583333333333,,78.48583333333333
314,2016-09-02,100.99225,,100.99225
314,2016-09-03,105.685,,105.685
314,2016-09-04,103.440375,,103.440375
314,2016-09-05,104.14858333333332,,104.14858333333332
314,2016-09-06,80.0145,,80.0145
314,2016-09-07,103.16166666666668,,103.16166666666668
314,2016-09-08,67.1005,,67.1005
314,2016-09-09,90.96508333333333,,90.96508333333333
314,2016-09-10,49.092666666666666,,49.092666666666666
314,2016-09-11,81.498875,,81.498875
314,2016-09-12,101.07445833333333,,101.07445833333333
314,2016-09-13,103.366125,,103.366125
314,2016-09-14,41.472791666666666,,41.472791666666666
314,2016-09-15,105.08866666666667,,105.08866666666667
314,2016-09-16,105.88291666666667,,105.88291666666667
314,2016-09-17,81.95716666666667,,81.95716666666667
314,2016-09-18,41.45845833333333,,41.45845833333333
314,2016-09-19,42.8165,,42.8165
314,2016-09-20,76.230625,,76.230625
314,2016-09-21,98.73191666666666,,98.73191666666666
314,2016-09-22,95.01441666666666,,95.01441666666666
314,2016-09-23,17.009249999999998,,17.009249999999998
314,2016-09-24,97.18504166666666,,97.18504166666666
314,2016-09-25,103.32962500000001,,103.32962500000001
314,2016-09-26,84.23191666666666,,84.23191666666666
314,2016-09-27,67.59654166666667,,67.59654166666667
314,2016-09-28,64.77870833333334,,64.77870833333334
314,2016-09-29,78.862125,,78.862125
314,2016-09-30,43.31908333333333,,43.31908333333333
314,2016-10-01,30.34,,30.34
314,2016-10-02,15.209791666666668,,15.209791666666668
314,2016-10-03,41.26441666666667,,41.26441666666667
314,2016-10-04,37.65904166666667,,37.65904166666667
314,2016-10-05,83.91941666666666,,83.91941666666666
314,2016-10-06,89.849125,,89.849125
314,2016-10-07,89.40645833333333,,89.40645833333333
314,2016-10-08,23.01970833333333,,23.01970833333333
314,2016-10-09,28.927291666666665,,28.927291666666665
314,2016-10-10,92.90899999999999,,92.90899999999999
314,2016-10-11,85.27737499999999,,85.27737499999999
314,2016-10-12,81.05870833333334,,81.05870833333334
314,2016-10-13,26.1095,,26.1095
314,2016-10-14,87.36200000000001,,87.36200000000001
314,2016-10-15,82.095125,,82.095125
314,2016-10-16,39.82695833333333,,39.82695833333333
314,2016-10-17,20.058708333333332,,20.058708333333332
314,2016-10-18,71.40258333333334,,71.40258333333334
314,2016-10-19,75.449375,,75.449375
314,2016-10-20,12.030041666666667,,12.030041666666667
314,2016-10-21,33.524875,,33.524875
314,2016-10-22,7.354208333333333,,7.354208333333333
314,2016-10-23,81.21758333333334,,81.21758333333334
314,2016-10-24,61.56120833333333,,61.56120833333333
314,2016-10-25,57.207125,,57.207125
314,2016-10-26,49.290375000000004,,49.290375000000004
314,2016-10-27,5.746125,,5.746125
314,2016-10-28,6.927083333333333,,6.927083333333333
314,2016-10-29,8.777416666666666,,8.777416666666666
314,2016-10-30,23.981875000000002,,23.981875000000002
314,2016-10-31,54.16416666666667,,54.16416666666667
314,2016-11-01,69.58991666666667,,69.58991666666667
314,2016-11-02,27.297,,27.297
314,2016-11-03,9.436333333333334,,9.436333333333334
314,2016-11-04,71.45579166666667,,71.45579166666667
314,2016-11-05,30.625041666666664,,30.625041666666664
314,2016-11-06,32.045625,,32.045625
314,2016-11-07,66.28783333333332,,66.28783333333332
314,2016-11-08,64.71620833333334,,64.71620833333334
314,2016-11-09,5.380291666666667,,5.380291666666667
314,2016-11-10,46.76445833333333,,46.76445833333333
314,2016-11-11,46.09908333333333,,46.09908333333333
314,2016-11-12,60.881499999999996,,60.881499999999996
314,2016-11-13,60.59383333333333,,60.59383333333333
314,2016-11-14,57.282624999999996,,57.282624999999996
314,2016-11-15,20.1185,,20.1185
314,2016-11-16,12.026208333333335,,12.026208333333335
314,2016-11-17,44.59245833333333,,44.59245833333333
314,2016-11-18,56.630208333333336,,56.630208333333336
314,2016-11-19,52.25129166666667,,52.25129166666667
314,2016-11-20,11.552208333333333,,11.552208333333333
314,2016-11-21,2.294208333333333,,2.294208333333333
314,2016-11-22,14.3725,,14.3725
314,2016-11-23,50.39845833333334,,50.39845833333334
314,2016-11-24,12.700666666666665,,12.700666666666665
314,2016-11-25,12.319125,,12.319125
314,2016-11-26,14.97275,,14.97275
314,2016-11-27,17.711041666666667,,17.711041666666667
314,2016-11-28,51.027375,,51.027375
314,2016-11-29,2.3425833333333332,,2.3425833333333332
314,2016-11-30,6.560041666666667,,6.560041666666667
314,2016-12-01,8.561375,,8.561375
314,2016-12-02,32.54570833333333,,32.54570833333333
314,2016-12-03,21.045625,,21.045625
314,2016-12-04,21.136708333333335,,21.136708333333335
314,2016-12-05,0.4036666666666667,,0.4036666666666667
314,2016-12-06,2.432375,,2.432375
314,2016-12-07,3.7279166666666668,,3.7279166666666668
314,2016-12-08,13.944,,13.944
314,2016-12-09,29.012916666666666,,29.012916666666666
314,2016-12-10,33.943958333333335,,33.943958333333335
314,2016-12-11,22.889375,,22.889375
314,2016-12-12,0.2929583333333333,,0.2929583333333333
314,2016-12-13,0.3842083333333333,,0.3842083333333333
314,2016-12-14,0.5300416666666666,,0.5300416666666666
314,2016-12-15,0.5872499999999999,,0.5872499999999999
314,2016-12-16,0.8046666666666668,,0.8046666666666668
314,2016-12-17,0.2890416666666667,,0.2890416666666667
314,2016-12-18,0.2748333333333333,,0.2748333333333333
314,2016-12-19,1.1002083333333335,,1.1002083333333335
314,2016-12-20,0.5885,,0.5885
314,2016-12-21,0.478,,0.478
314,2016-12-22,0.2853333333333333,,0.2853333333333333
314,2016-12-23,0.5718333333333333,,0.5718333333333333
314,2016-12-24,0.27108333333333334,,0.27108333333333334
314,2016-12-25,4.6995,,4.6995
314,2016-12-26,3.3217499999999998,,3.3217499999999998
314,2016-12-27,7.221416666666666,,7.221416666666666
314,2016-12-28,20.29820833333333,,20.29820833333333
314,2016-12-29,0.5598333333333333,,0.5598333333333333
314,2016-12-30,0.23958333333333334,,0.23958333333333334
314,2016-12-31,0.24870833333333334,,0.24870833333333334
314,2017-01-01,0.32695833333333335,,0.32695833333333335
314,2017-01-02,0.2813333333333333,,0.2813333333333333
314,2017-01-03,0.24625,,0.24625
314,2017-01-04,9.984416666666666,,9.984416666666666
314,2017-01-05,39.18095833333333,,39.18095833333333
314,2017-01-06,8.359416666666666,,8.359416666666666
314,2017-01-07,8.761750000000001,,8.761750000000001
314,2017-01-08,14.38675,,14.38675
314,2017-01-09,12.359333333333334,,12.359333333333334
314,2017-01-10,10.570375,,10.570375
314,2017-01-11,41.87375,,41.87375
314,2017-01-12,3.701916666666667,,3.701916666666667
314,2017-01-13,50.852916666666665,,50.852916666666665
314,2017-01-14,29.558625000000003,,29.558625000000003
314,2017-01-15,51.727875000000004,,51.727875000000004
314,2017-01-16,43.48829166666667,,43.48829166666667
314,2017-01-17,18.813791666666667,,18.813791666666667
314,2017-01-18,3.9466666666666668,,3.9466666666666668
314,2017-01-19,15.869833333333332,,15.869833333333332
314,2017-01-20,6.351541666666667,,6.351541666666667
314,2017-01-21,21.4675,,21.4675
314,2017-01-22,4.782666666666667,,4.782666666666667
314,2017-01-23,15.496166666666667,,15.496166666666667
314,2017-01-24,1.1564166666666666,,1.1564166666666666
314,2017-01-25,0.36074999999999996,,0.36074999999999996
314,2017-01-26,7.841333333333334,,7.841333333333334
314,2017-01-27,26.918000000000003,,26.918000000000003
314,2017-01-28,29.514375,,29.514375
314,2017-01-29,40.358041666666665,,40.358041666666665
314,2017-01-30,70.39733333333334,,70.39733333333334
314,2017-01-31,45.471583333333335,,45.471583333333335
314,2017-02-01,20.974208333333333,,20.974208333333333
314,2017-02-02,31.057541666666665,,31.057541666666665
314,2017-02-03,25.513333333333335,,25.513333333333335
314,2017-02-04,42.83870833333333,,42.83870833333333
314,2017-02-05,31.000291666666666,,31.000291666666666
314,2017-02-06,50.00808333333333,,50.00808333333333
314,2017-02-07,7.073166666666666,,7.073166666666666
314,2017-02-08,34.833625,,34.833625
314,2017-02-09,0.3622083333333333,,0.3622083333333333
314,2017-02-10,1.5601666666666667,,1.5601666666666667
314,2017-02-11,0.271125,,0.271125
314,2017-02-12,0.292,,0.292
314,2017-02-13,0.284125,,0.284125
314,2017-02-14,0.2529166666666667,,0.2529166666666667
314,2017-02-15,0.22941666666666669,,0.22941666666666669
314,2017-02-16,0.24245833333333333,,0.24245833333333333
314,2017-02-17,0.34404166666666663,,0.34404166666666663
314,2017-02-18,0.3987083333333334,,0.3987083333333334
314,2017-02-19,8.060166666666666,,8.060166666666666
314,2017-02-20,89.15137499999999,,89.15137499999999
314,2017-02-21,59.57570833333333,,59.57570833333333
314,2017-02-22,74.60175,,74.60175
314,2017-02-23,67.76058333333333,,67.76058333333333
314,2017-02-24,39.82575,,39.82575
314,2017-02-25,33.21125,,33.21125
314,2017-02-26,51.54191666666667,,51.54191666666667
314,2017-02-27,83.55754166666667,,83.55754166666667
314,2017-02-28,52.96641666666667,,52.96641666666667
314,2017-03-01,28.052333333333333,,28.052333333333333
314,2017-03-02,67.13054166666667,,67.13054166666667
314,2017-03-03,83.82316666666667,,83.82316666666667
314,2017-03-04,61.734625,,61.734625
314,2017-03-05,94.95070833333334,,94.95070833333334
314,2017-03-06,66.95337500000001,,66.95337500000001
314,2017-03-07,4.190375,,4.190375
314,2017-03-08,75.029,,75.029
314,2017-03-09,78.71895833333333,,78.71895833333333
314,2017-03-10,44.64358333333333,,44.64358333333333
314,2017-03-11,76.59904166666666,,76.59904166666666
314,2017-03-12,98.13558333333333,,98.13558333333333
314,2017-03-13,71.291875,,71.291875
314,2017-03-14,0.2840416666666667,,0.2840416666666667
314,2017-03-15,0.32837500000000003,,0.32837500000000003
314,2017-03-16,1.482,,1.482
314,2017-03-17,3.622666666666667,,3.622666666666667
314,2017-03-18,8.263333333333334,,8.263333333333334
314,2017-03-19,21.031541666666666,,21.031541666666666
314,2017-03-20,40.68783333333334,,40.68783333333334
314,2017-03-21,35.54454166666667,,35.54454166666667
314,2017-03-22,99.16695833333334,,99.16695833333334
314,2017-03-23,101.65383333333334,,101.65383333333334
314,2017-03-24,7.984625,,7.984625
314,2017-03-25,20.198125,,20.198125
314,2017-03-26,27.052374999999998,,27.052374999999998
314,2017-03-27,14.0835,,14.0835
314,2017-03-28,30.700833333333335,,30.700833333333335
314,2017-03-29,53.291875000000005,,53.291875000000005
314,2017-03-30,101.06275,,101.06275
314,2017-03-31,1.2555,,1.2555
314,2017-04-01,13.6175,,13.6175
314,2017-04-02,95.81533333333334,,95.81533333333334
314,2017-04-03,82.99241666666667,,82.99241666666667
314,2017-04-04,9.989875,,9.989875
314,2017-04-05,40.81529166666667,,40.81529166666667
314,2017-04-06,9.094,,9.094
314,2017-04-07,40.185125,,40.185125
314,2017-04-08,70.49504166666667,,70.49504166666667
314,2017-04-09,117.16433333333333,,117.16433333333333